Location: Goettingen
(51.5300°N, 9.9433°E)
Time: 11:45:50
(UTC+02:00)

ISS - Pass Details

Date: 17 September 2020
Orbit: 419 x 420 km, 51.6° (Epoch: 18 September)

Event Time Altitude Azimuth Distance (km) Brightness Sun altitude
Rises 20:49:13 0° 203° (SSW) 2,355 0.1 -13.0°
Reaches altitude 10° 20:51:52 10° 181° (S) 1,495 -1.2 -13.4°
Enters shadow 20:53:06 15° 160° (SSE) 1,246 -1.7 -13.5°
